User: anonymous   Login
Location: Unspecified
(0.0000°N, 0.0000°E)
Time: 16:00:16
(UTC+01:00)
Language:

NOAA 12 - Orbit

View from above orbital plane
View from above orbital plane
View from above satellite
View from above satellite

Ground track
Ground track

The orbit data is extracted from the following two-line orbital elements,

1 21263U 91032A   14303.46871510  .00000145  00000-0  79654-4 0  4813
2 21263 098.6532 328.6829 0013634 199.1831 293.6601 14.25693993219837
Epoch (UTC): 30 October 2014 11:14:56
Eccentricity: 0.0013634
inclination: 98.6532°
perigee height: 796 km
apogee height: 816 km
right ascension of ascending node: 328.6829°
argument of perigee: 199.1831°
revolutions per day: 14.25693993
mean anomaly at epoch: 293.6601°
orbit number at epoch: 21983

The dashed part of the orbit path shows where the satellite is in the earth's shadow,  

DLR